Regional Weather Roundup
Issued by NWS

Home | Current Version | Previous Version | Graphics & Text | Print | Product List | Glossary On
Versions: 1 2 3 4 5 6 7 8 9 10 11 12 13 14 15 16 17 18 19 20 21 22 23 24 25 26 27 28
000
ASUS45 KPSR 221510
RWRAZ

ARIZONA HOURLY REGIONAL WEATHER ROUNDUP
NATIONAL WEATHER SERVICE PHOENIX AZ
800 AM MST MON JAN 22 2018

NOTE: FAIR INDICATES FEW OR NO CLOUDS BELOW 12,000 FEET WITH NO
SIGNIFICANT WEATHER AND/OR OBSTRUCTIONS TO VISIBILITY.

AZZ001>003-036-221600-
NORTHWEST ARIZONA

CITY           SKY/WX    TMP DP  RH WIND       PRES   REMARKS
BULLHEAD CITY  PTCLDY    46  23  39 N20       30.31S
KINGMAN        PTCLDY   N/A N/A N/A E8        30.29R
$$

AZZ004>008-015-016-018-221600-
NORTH CENTRAL ARIZONA

CITY           SKY/WX    TMP DP  RH WIND       PRES   REMARKS
GRAND CANYON   PTCLDY     2  -1  88 CALM      30.23S
WILLIAMS       PTCLDY     5   1  85 S10       30.20R WCI -10
PRESCOTT       PTCLDY    18  13  80 SW5       30.24S WCI  11
FLAGSTAFF      PTCLDY    -1  -6  79 CALM      30.22S
PAYSON         CLEAR     27  12  54 E5        30.23S WCI  21
PAGE           PTCLDY    25  11  55 CALM      30.30R
$$

AZZ009>014-017-221600-
NORTHEAST ARIZONA

CITY           SKY/WX    TMP DP  RH WIND       PRES   REMARKS
WINSLOW        CLOUDY    11   6  81 CALM      30.31R
SAINT JOHNS    CLOUDY    11   5  77 CALM      30.27R
WINDOW ROCK    MOCLDY     4  -1  80 CALM      30.23R
SHOW LOW       LGT RAIN  12   5  73 E3        30.26R
$$

AZZ540-542>544-546-548-221600-
GREATER PHOENIX AREA

CITY           SKY/WX    TMP DP  RH WIND       PRES   REMARKS
PHOENIX        MOCLDY    42  27  55 E3        30.25S
BUCKEYE        MOCLDY    34  19  55 N5        30.27S WCI  30
GLENDALE       MOCLDY    37  27  65 CALM      30.28S
LUKE AFB       MOCLDY    37  24  59 CALM      30.25S
DEER VALLEY    PTCLDY    39  24  55 SE3       30.25R
SCOTTSDALE     PTCLDY    38  26  62 CALM      30.26S
MESA-FALCON    PTCLDY    41  25  52 N13       30.26S
MESA-GATEWAY   MOCLDY    34  23  64 CALM      30.27S
CHANDLER       MOCLDY    36  25  64 CALM      30.27S
$$

AZZ539-553-221600-
SOUTHWEST MARICOPA COUNTY AND PINAL COUNTY

CITY           SKY/WX    TMP DP  RH WIND       PRES   REMARKS
CASA GRANDE    NOT AVBL
GILA BEND      MOCLDY    36  16  43 E7        30.25S WCI  31
$$

AZZ503-504-507>509-221600-
SOUTHEAST ARIZONA

CITY           SKY/WX    TMP DP  RH WIND       PRES   REMARKS
TUCSON         MOCLDY    33  16  49 SE8       30.24S WCI  26
DAVIS-MONTHAN  MOCLDY    36  17  46 CALM      30.22S
NOGALES        CLEAR     26  11  52 SE3       30.19S
SIERRA VISTA   PTCLDY    30  15  52 CALM      30.22S
DOUGLAS        PTCLDY    21  11  65 NE3       30.24R
SAFFORD        PTCLDY    25  15  66 CALM      30.27R
$$

AZZ532-221600-
SOUTHWEST ARIZONA

CITY           SKY/WX    TMP DP  RH WIND       PRES   REMARKS
YUMA           CLOUDY    45  17  32 N3        30.27R
$$

CAZ041-043-047-048-061-525>527-560>570-221600-
SOUTHERN CALIFORNIA

CITY           SKY/WX    TMP DP  RH WIND       PRES   REMARKS
DOWNTOWN L.A.  CLEAR     48  24  39 NE3       30.25R
L.A. AIRPORT   PTCLDY    48  26  42 NE6       30.25S
SAN DIEGO      PTCLDY    48  34  58 N5        30.26R
BURBANK        CLEAR     43  24  47 N3        30.24S
ONTARIO        PTCLDY    42  27  55 N3        30.25S
RIVERSIDE      CLEAR     40  32  73 NE5       30.26S
PALM SPRINGS   CLEAR     44  27  51 NW6       30.30R
EL CENTRO NAS  MOCLDY    37  15  40 W8        30.30R WCI  31
IMPERIAL       PTCLDY    39  18  42 CALM      30.28R
BLYTHE         CLEAR     40  16  37 CALM      30.29S
NEEDLES        MOCLDY    45  22  40 CALM      30.31R
$$

NVZ020-UTZ003-221600-
SOUTHERN NEVADA-UTAH

CITY           SKY/WX    TMP DP  RH WIND       PRES   REMARKS
LAS VEGAS      PTCLDY    37  25  61 S5        30.34R WCI  33
SALT LAKE CITY MOCLDY    25  17  72 SE13      30.30S WCI  14
$$

NMZ009-TXZ055-221600-
NEW MEXICO-WEST TEXAS

CITY           SKY/WX    TMP DP  RH WIND       PRES   REMARKS
ALBUQUERQUE    PTCLDY    25  10  53 N15G23    30.22R WCI  13
EL PASO        PTCLDY    32  15  49 SE3       30.22R
$$


........................KEY........................
SKY/WX - SKY CONDITION/WEATHER
TMP    - TEMPERATURE IN FAHRENHEIT
DP     - DEW POINT IN FAHRENHEIT
RH     - RELATIVE HUMIDITY IN PERCENT
WIND   - DIRECTION AND SPEED IN MILES PER HOUR (MPH)
VRB    - VARIABLE WIND DIRECTION
PRES   - MEAN SEA LEVEL PRESSURE IN INCHES OF MERCURY
         F - FALLING PRESSURE   R - RISING PRESSURE
         S - STEADY PRESSURE
VSB    - VISIBILITY IN MILES
HX     - HEAT INDEX IN FAHRENHEIT
WCI    - WIND CHILL INDEX IN FAHRENHEIT
TC     - TEMPERATURE IN CELSIUS WHICH IS ALSO KNOWN AS
         TEMPERATURE IN CENTIGRADE
AFB    - AIR FORCE BASE
         LUKE AFB IS LUKE AIR FORCE BASE
         DAVIS-MONTHAN IS DAVIS-MONTHAN AIR FORCE BASE
NAS    - NAVAL AIR STATION
         EL CENTRO NAS IS EL CENTRO NAVAL AIR STATION
N/A    - NOT AVAILABLE





USA.gov is the U.S. government's official web portal to all federal, state and local government web resources and services.